[[{"header":{"parameterUnit":"m.s-1","parameterCategory":1,"la1":30.2991,"la2":30.254,"lo1":-89.0895,"lo2":-89.0444,"dy":0.0017,"dx":0.0017,"nx":28,"ny":28,"refTime":"2023-10-06T09:00:00:Z","depth":0,"parameterNumber":2,"parameterNumberName":"U-component_of_WINDS"},"data":[0,0,0,0,0,0,0,0,0,0,0,0,0,0,0,0,0,0,0,0,0,0,0,0,0,0,0,0,0,0,0,0,0,0,0,0,0,0,0,0,0,0,0,0,0,0,0,0,0,0,0,0,0,0,0,0,0,0,-1.5941,-1.5942,0,-1.6012,-1.6012,-1.6013,-1.5948,-1.5946,-1.5943,-1.5941,-1.6014,-1.6018,-1.6022,0,0,0,0,0,0,0,0,0,0,0,0,0,-1.575,-1.5753,-1.5941,-1.5942,-1.5943,-1.6011,-1.6012,-1.6013,-1.5949,-1.5946,-1.5942,-1.5939,-1.6012,-1.6017,-1.6023,0,0,0,0,0,0,0,0,0,0,0,0,0,-1.5828,-1.5755,-1.5941,-1.5919,-1.5917,-1.6011,-1.6012,-1.6014,-1.5949,-1.5945,-1.5942,-1.5938,-1.601,-1.6017,-1.6023,-1.6143,0,0,-1.6043,-1.6046,0,0,0,0,0,0,0,0,-1.5823,-1.5835,-1.5921,-1.592,-1.5919,-1.5967,-1.5972,-1.6057,-1.595,-1.5937,-1.594,-1.5936,-1.6001,-1.6008,-1.603,-1.6146,-1.6149,-1.6044,-1.6048,-1.6051,-1.6053,0,0,0,0,0,0,0,-1.5818,-1.5831,-1.5969,-1.5922,-1.5921,-1.5905,-1.5912,-1.5987,-1.5991,-1.5938,-1.5934,-1.5943,-1.6,-1.6024,-1.6032,-1.615,-1.6044,-1.605,-1.6054,-1.6056,-1.6367,-1.6371,0,0,0,0,0,0,-1.5815,-1.5827,-1.5967,-1.5971,-1.5861,-1.5912,-1.5919,-1.5956,-1.599,-1.5991,-1.5946,-1.594,-1.6015,-1.6024,-1.6034,-1.6176,-1.6051,-1.6057,-1.6061,-1.6363,-1.6368,-1.6372,0,0,0,0,0,0,-1.5811,-1.5828,-1.5964,-1.5898,-1.5914,-1.5919,-1.5961,-1.5959,-1.5983,-1.5996,-1.5996,-1.597,-1.6012,-1.6025,-1.6116,-1.6178,-1.606,-1.6066,-1.6358,-1.6364,-1.637,-1.6462,0,0,0,0,0,0,-1.5806,-1.5827,-1.5873,-1.59,-1.5918,-1.6046,-1.5964,-1.5963,-1.5995,-1.5987,-1.6018,-1.602,-1.601,-1.6107,-1.6123,-1.6185,-1.6071,-1.6352,-1.6361,-1.6368,-1.6454,-1.6471,-1.6486,0,0,0,0,0,-1.5799,-1.5896,-1.5876,-1.5893,-1.5975,-1.6049,-1.606,-1.6046,-1.6,-1.6046,-1.6053,-1.6019,-1.6168,-1.6116,-1.6134,-1.6199,-1.6348,-1.6358,-1.6368,-1.6447,-1.6468,-1.6486,0,0,0,0,0,0,-1.5878,-1.59,-1.5877,-1.5985,-1.6016,-1.6038,-1.6096,-1.6069,-1.6114,-1.6105,-1.6086,-1.6093,-1.619,-1.6203,-1.6145,-1.6316,-1.6251,-1.6264,-1.6305,-1.6325,-1.6341,-1.6337,-1.6077,0,0,0,0,0,-1.5907,-1.5966,-1.5981,-1.6076,-1.6092,-1.6091,-1.6123,-1.611,-1.6141,-1.6154,-1.6168,-1.6199,-1.6253,-1.6289,-1.6339,-1.6454,-1.646,-1.6507,-1.6523,-1.6537,-1.655,-1.6611,-1.6633,-1.6404,-1.6404,-1.6404,0,0,-1.597,-1.5989,-1.6027,-1.6092,-1.6114,-1.6175,-1.6103,-1.617,-1.6215,-1.6164,-1.6252,-1.6263,-1.6296,-1.64,-1.6446,-1.6414,-1.6613,-1.6549,-1.6559,-1.6565,-1.6623,-1.6645,-1.6664,-1.6411,-1.641,-1.6409,0,0,-1.6115,-1.6135,-1.6216,-1.6239,-1.6273,-1.6272,-1.6291,-1.6317,-1.6323,-1.641,-1.6372,-1.6425,-1.6518,-1.6544,-1.6569,-1.6721,-1.6691,-1.6738,-1.6823,-1.6883,-1.6901,-1.6917,-1.6973,-1.6993,-1.675,-1.675,-1.675,0,-1.6189,-1.628,-1.6261,-1.6331,-1.6361,-1.6316,-1.6397,-1.642,-1.6469,-1.6491,-1.6453,-1.6569,-1.6588,-1.6697,-1.6734,-1.6755,-1.6777,-1.6736,-1.69,-1.6916,-1.693,-1.6983,-1.7004,-1.6756,-1.6755,-1.6755,-1.6754,0,-1.6369,-1.6432,-1.6493,-1.6541,-1.6577,-1.6653,-1.6645,-1.6684,-1.6666,-1.6669,-1.6758,-1.6779,-1.6832,-1.6856,-1.6841,-1.6963,-1.6942,-1.6903,-1.6837,-1.6958,-1.7008,-1.7027,-1.6764,-1.6762,-1.676,-1.6759,0,0,-1.6569,-1.6604,-1.6627,-1.6648,-1.6681,-1.673,-1.6802,-1.6854,-1.6888,-1.6922,-1.6983,-1.7062,-1.7025,-1.7053,-1.7039,-1.7092,-1.7212,-1.7046,-1.7046,-1.7078,-1.735,-1.7381,-1.7405,-1.7191,-1.7195,-1.7198,-1.7347,0,-1.6717,-1.6844,-1.6829,-1.6951,-1.7009,-1.6965,-1.7028,-1.7055,-1.7058,-1.7108,-1.7111,-1.7168,-1.7114,-1.7131,-1.7181,-1.7187,-1.7267,-1.7176,-1.7249,-1.7252,-1.7244,-1.743,-1.7464,-1.7605,-1.7366,-1.737,-1.7372,0,-1.6908,-1.6949,-1.7076,-1.7099,-1.7123,-1.7181,-1.7226,-1.7274,-1.7303,-1.7301,-1.7332,-1.7308,-1.7381,-1.7311,-1.7411,-1.7349,-1.7377,-1.7384,-1.7389,-1.7398,-1.7321,-1.7446,-1.7649,-1.7671,-1.7402,-1.74,-1.7397,0,-1.7043,-1.7129,-1.7217,-1.7236,-1.7265,-1.7306,-1.732,-1.7345,-1.7377,-1.7416,-1.7437,-1.7484,-1.7511,-1.7548,-1.7537,-1.7487,-1.7639,-1.7569,-1.7641,-1.7642,-1.7678,-1.7676,-1.7891,-1.7692,-1.7692,-1.7691,-1.7691,0,-1.7212,-1.7292,-1.7278,-1.7333,-1.7421,-1.7401,-1.7488,-1.7497,-1.7519,-1.7574,-1.7537,-1.7589,-1.7571,-1.7622,-1.7613,-1.7697,-1.7709,-1.771,-1.7708,-1.7715,-1.7715,-1.7736,-1.7726,-1.7697,-1.7696,-1.7695,-1.7694,0,-1.7379,-1.7373,-1.7466,-1.7485,-1.7491,-1.7556,-1.7572,-1.7622,-1.7621,-1.7691,-1.7706,-1.7705,-1.7763,-1.7755,-1.7819,-1.7813,-1.7919,-1.7903,-1.791,-1.7907,-1.798,-1.7974,-1.8217,-1.8248,-1.8028,-1.803,-1.8031,0,-1.7489,-1.7549,-1.7574,-1.7608,-1.7625,-1.768,-1.7712,-1.7694,-1.7729,-1.7765,-1.7812,-1.7865,-1.7908,-1.8002,-1.8007,-1.8056,-1.8042,-1.8124,-1.805,-1.8055,-1.8046,-1.8043,-1.805,-1.814,-1.8142,-1.8144,-1.8146,0,-1.7684,-1.7677,-1.7725,-1.7772,-1.7811,-1.7846,-1.7879,-1.7908,-1.7893,-1.7933,-1.7992,-1.8025,-1.8089,-1.8144,-1.8189,-1.8203,-1.8173,-1.8168,-1.8188,-1.8198,-1.82,-1.8201,-1.7952,-1.8164,-1.8162,-1.8161,-1.816,-1.8159,-1.7827,-1.7879,-1.7905,-1.7959,-1.798,-1.8011,-1.8059,-1.8064,-1.8112,-1.8164,-1.8149,-1.8216,-1.8241,-1.8299,-1.8317,-1.8368,-1.8338,-1.8366,-1.8374,-1.8382,-1.8391,-1.8189,-1.8376,-1.8375,-1.8375,-1.8374,-1.8374,0,-1.8022,-1.8036,-1.8085,-1.8131,-1.8173,-1.8139,-1.8172,-1.821,-1.8269,-1.8295,-1.8337,-1.8404,-1.8456,-1.8464,-1.8513,-1.8553,-1.854,-1.8566,-1.8565,-1.8568,-1.8414,-1.8393,-1.8576,-1.8576,-1.8576,-1.8576,-1.8576,-1.8576,-1.8129,-1.8215,-1.8211,-1.8307,-1.8319,-1.8384,-1.8406,-1.8434,-1.8455,-1.8531,-1.8574,-1.8578,-1.8597,-1.8647,-1.8693,-1.8694,-1.8714,-1.8747,-1.8743,-1.8599,-1.8579,-1.856,-1.854,-1.8751,-1.8751,-1.8892,-1.8894,-1.8895]},{"header":{"parameterUnit":"m.s-1","parameterCategory":1,"la1":30.2991,"la2":30.254,"lo1":-89.0895,"lo2":-89.0444,"dy":0.0017,"dx":0.0017,"nx":28,"ny":28,"refTime":"2023-10-06T09:00:00:Z","depth":0,"parameterNumber":3,"parameterNumberName":"V-component_of_WINDS"},"data":[0,0,0,0,0,0,0,0,0,0,0,0,0,0,0,0,0,0,0,0,0,0,0,0,0,0,0,0,0,0,0,0,0,0,0,0,0,0,0,0,0,0,0,0,0,0,0,0,0,0,0,0,0,0,0,0,0,0,-7.6799,-7.68,0,-7.6945,-7.6947,-7.6948,-7.6825,-7.682,-7.6815,-7.681,-7.6953,-7.6961,-7.697,0,0,0,0,0,0,0,0,0,0,0,0,0,-7.6405,-7.6413,-7.6799,-7.6801,-7.6802,-7.6945,-7.6947,-7.6949,-7.6826,-7.682,-7.6814,-7.6808,-7.695,-7.696,-7.697,0,0,0,0,0,0,0,0,0,0,0,0,0,-7.6566,-7.6416,-7.6798,-7.6759,-7.6756,-7.6944,-7.6947,-7.6949,-7.6828,-7.682,-7.6812,-7.6805,-7.6947,-7.6959,-7.6972,-7.7204,0,0,-7.7011,-7.7017,0,0,0,0,0,0,0,0,-7.6557,-7.6581,-7.6763,-7.6762,-7.676,-7.6859,-7.686,-7.7035,-7.683,-7.68,-7.681,-7.6801,-7.6928,-7.6941,-7.6985,-7.7211,-7.7217,-7.7012,-7.702,-7.7026,-7.7029,0,0,0,0,0,0,0,-7.6546,-7.6574,-7.6856,-7.6765,-7.6764,-7.6731,-7.6745,-7.6893,-7.6905,-7.6802,-7.6794,-7.6813,-7.6925,-7.6973,-7.6988,-7.7219,-7.7012,-7.7023,-7.7031,-7.7036,-7.7641,-7.7649,0,0,0,0,0,0,-7.654,-7.6565,-7.6852,-7.6861,-7.6638,-7.6744,-7.676,-7.6835,-7.6903,-7.6906,-7.682,-7.6807,-7.6955,-7.6973,-7.6992,-7.7269,-7.7025,-7.7037,-7.7045,-7.7633,-7.7643,-7.7652,0,0,0,0,0,0,-7.6532,-7.6567,-7.6846,-7.6711,-7.6744,-7.6759,-7.6844,-7.6842,-7.689,-7.6916,-7.6917,-7.6867,-7.695,-7.6974,-7.7153,-7.7272,-7.7043,-7.7055,-7.7623,-7.7636,-7.7648,-7.7824,0,0,0,0,0,0,-7.6521,-7.6565,-7.6655,-7.6714,-7.6752,-7.7007,-7.6851,-7.685,-7.6913,-7.6898,-7.6961,-7.6964,-7.6946,-7.7134,-7.7166,-7.7286,-7.7065,-7.7613,-7.7629,-7.7644,-7.7808,-7.7841,-7.787,0,0,0,0,0,-7.6508,-7.6698,-7.6661,-7.6696,-7.6866,-7.7014,-7.7035,-7.7013,-7.6924,-7.7013,-7.703,-7.6962,-7.7254,-7.7154,-7.7188,-7.7313,-7.7605,-7.7624,-7.7643,-7.7794,-7.7835,-7.7869,0,0,0,0,0,0,-7.665,-7.6705,-7.6664,-7.6879,-7.6943,-7.6993,-7.7106,-7.7056,-7.7145,-7.7127,-7.7092,-7.7108,-7.7296,-7.7322,-7.721,-7.7541,-7.7415,-7.7441,-7.7518,-7.7557,-7.7587,-7.7577,-7.7076,0,0,0,0,0,-7.6707,-7.6826,-7.6866,-7.7051,-7.7086,-7.7091,-7.7154,-7.7132,-7.7195,-7.7221,-7.7251,-7.7313,-7.7418,-7.7489,-7.7587,-7.781,-7.7821,-7.7913,-7.7944,-7.797,-7.7993,-7.8112,-7.8153,-7.7714,-7.7714,-7.7714,0,0,-7.6825,-7.6869,-7.6946,-7.7081,-7.7128,-7.7249,-7.7114,-7.7248,-7.7337,-7.724,-7.7412,-7.7436,-7.7503,-7.7705,-7.7795,-7.7732,-7.8116,-7.7994,-7.8014,-7.8023,-7.8135,-7.8177,-7.8214,-7.7727,-7.7725,-7.7723,0,0,-7.7102,-7.7148,-7.7308,-7.7358,-7.7432,-7.7434,-7.7472,-7.753,-7.7543,-7.7715,-7.7644,-7.7748,-7.7931,-7.7982,-7.8031,-7.8327,-7.8268,-7.836,-7.8522,-7.8638,-7.8673,-7.8703,-7.8808,-7.8846,-7.8383,-7.8383,-7.8384,0,-7.7239,-7.7422,-7.7396,-7.7536,-7.7596,-7.7517,-7.7677,-7.7726,-7.7827,-7.7869,-7.7798,-7.8026,-7.8065,-7.8278,-7.835,-7.8393,-7.8434,-7.8353,-7.867,-7.8701,-7.8728,-7.8828,-7.8868,-7.8394,-7.8393,-7.8392,-7.8391,0,-7.7586,-7.7713,-7.7833,-7.7936,-7.8009,-7.8159,-7.8153,-7.823,-7.8201,-7.8209,-7.8384,-7.8429,-7.8535,-7.8583,-7.8554,-7.8791,-7.875,-7.8676,-7.8548,-7.8782,-7.8875,-7.8913,-7.841,-7.8406,-7.8402,-7.84,0,0,-7.7958,-7.8044,-7.8089,-7.8134,-7.8209,-7.8306,-7.845,-7.8556,-7.8623,-7.8694,-7.8814,-7.897,-7.8902,-7.8958,-7.8934,-7.9036,-7.9267,-7.8948,-7.8949,-7.9006,-7.953,-7.9586,-7.9631,-7.9228,-7.9235,-7.9241,-7.9524,0,-7.8238,-7.8493,-7.8473,-7.8712,-7.8829,-7.8754,-7.888,-7.8938,-7.895,-7.9048,-7.9059,-7.9171,-7.9072,-7.9105,-7.9203,-7.9219,-7.9372,-7.9197,-7.9336,-7.9342,-7.9323,-7.9679,-7.9739,-8.0005,-7.956,-7.9566,-7.9571,0,-7.8599,-7.8687,-7.8939,-7.8996,-7.9044,-7.9158,-7.9253,-7.9349,-7.9412,-7.9413,-7.9477,-7.9435,-7.9578,-7.9447,-7.9642,-7.9524,-7.9579,-7.9595,-7.9605,-7.9617,-7.9471,-7.9701,-8.0089,-8.0129,-7.9628,-7.9623,-7.9619,0,-7.8845,-7.9025,-7.9199,-7.924,-7.9311,-7.9393,-7.9426,-7.9482,-7.9547,-7.9629,-7.967,-7.9767,-7.982,-7.9894,-7.9879,-7.9785,-8.0078,-7.9946,-8.0081,-8.0082,-8.0147,-8.0143,-8.0549,-8.0183,-8.0182,-8.0181,-8.0181,0,-7.9161,-7.9318,-7.9311,-7.9418,-7.9591,-7.9565,-7.9736,-7.9759,-7.9809,-7.9917,-7.9857,-7.9959,-7.9933,-8.0034,-8.0022,-8.0185,-8.0209,-8.0213,-8.0208,-8.0219,-8.0218,-8.0254,-8.0236,-8.0192,-8.019,-8.0187,-8.0186,0,-7.9465,-7.9467,-7.9652,-7.9704,-7.9721,-7.9846,-7.9889,-7.9989,-7.9995,-8.0133,-8.0164,-8.0173,-8.0288,-8.0281,-8.041,-8.0402,-8.0603,-8.0576,-8.0583,-8.0577,-8.0713,-8.0701,-8.1157,-8.1215,-8.0811,-8.0815,-8.0818,0,-7.9667,-7.9786,-7.9852,-7.9921,-7.9961,-8.0073,-8.0139,-8.0118,-8.0189,-8.027,-8.0359,-8.047,-8.0557,-8.0743,-8.076,-8.0858,-8.0833,-8.0986,-8.0847,-8.0854,-8.0835,-8.0829,-8.084,-8.1013,-8.1018,-8.1022,-8.1025,0,-8.0024,-8.0019,-8.0118,-8.0219,-8.0301,-8.0378,-8.0448,-8.0508,-8.0493,-8.0575,-8.0694,-8.0762,-8.0894,-8.1004,-8.1097,-8.1127,-8.1074,-8.1068,-8.1105,-8.1117,-8.1116,-8.1119,-8.0658,-8.1058,-8.1055,-8.1052,-8.105,-8.1049,-8.0283,-8.0385,-8.0448,-8.0561,-8.0612,-8.0679,-8.0775,-8.0795,-8.0894,-8.1002,-8.0982,-8.1115,-8.1173,-8.1294,-8.1333,-8.1434,-8.1379,-8.1432,-8.1446,-8.1459,-8.1475,-8.11,-8.1451,-8.145,-8.1449,-8.1448,-8.1448,0,-8.0637,-8.0673,-8.0777,-8.0879,-8.0967,-8.0911,-8.0986,-8.1063,-8.1181,-8.1241,-8.1329,-8.1464,-8.157,-8.1595,-8.1696,-8.1772,-8.175,-8.1799,-8.1793,-8.1801,-8.1519,-8.1477,-8.1816,-8.1815,-8.1815,-8.1815,-8.1815,-8.1815,-8.0831,-8.1002,-8.1005,-8.1199,-8.1233,-8.1365,-8.1413,-8.1473,-8.1521,-8.1676,-8.1765,-8.1781,-8.1827,-8.193,-8.2024,-8.2028,-8.2068,-8.2127,-8.2122,-8.1858,-8.1821,-8.1786,-8.1747,-8.2136,-8.2137,-8.2396,-8.2398,-8.24]}]]